EW9663 Weather Reports


time (UTC)temp
C
wind
direction
speed
KPH
gust
KPH
rain 1hr
cm
rain 24hr
cm
rain mn
cm
humidity
%
barometer
mb
20200216213115 15 182 0.0 0.0 0.00 0.08 0.00 86 1027.1
20200216211756 15 160 0.0 0.0 0.00 0.08 0.00 86 1027.0
20200216204628 15 178 0.0 0.0 0.00 0.08 0.00 86 1026.8
20200216203107 15 169 0.0 0.0 0.00 0.08 0.00 86 1026.7
20200216201627 15 171 0.0 0.0 0.00 0.08 0.00 86 1026.7
20200216194540 15 175 0.0 0.0 0.00 0.08 0.00 87 1026.7
20200216193103 15 189 0.0 0.0 0.00 0.08 0.00 86 1026.6
20200216191547 15 186 0.0 0.0 0.00 0.08 0.00 86 1026.7
20200216184605 15 180 0.0 0.0 0.00 0.08 0.00 86 1026.4
20200216183113 15 163 0.0 0.0 0.00 0.08 0.00 86 1026.3
20200216181652 15 190 0.0 0.0 0.00 0.08 0.00 86 1026.1
20200216174630 15 195 0.0 0.0 0.00 0.08 0.00 86 1026.0
20200216173042 15 155 0.0 0.0 0.00 0.08 0.00 86 1025.8
20200216171538 16 167 0.0 0.0 0.00 0.08 0.00 87 1025.9
20200216164525 16 184 0.0 0.0 0.00 0.08 0.00 86 1025.9
20200216163031 16 156 0.0 0.0 0.00 0.08 0.00 87 1025.9
20200216161542 16 175 0.0 0.0 0.00 0.08 0.08 88 1025.9
20200216154531 16 180 0.0 0.0 0.00 0.08 0.08 89 1026.1
20200216153027 16 162 0.0 0.0 0.00 0.08 0.08 89 1026.2
20200216151543 16 160 0.0 0.0 0.00 0.08 0.08 90 1026.3
20200216144536 15 188 0.0 0.0 0.03 0.08 0.08 89 1026.3
20200216143013 15 214 0.0 0.0 0.03 0.08 0.08 89 1026.5
20200216141528 15 180 0.0 0.0 0.03 0.08 0.08 89 1026.8
20200216134517 15 201 0.0 0.0 0.00 0.05 0.05 90 1027.1
20200216133031 15 182 0.0 0.0 0.03 0.05 0.05 90 1027.1
20200216131515 15 174 0.0 0.0 0.05 0.08 0.05 90 1027.2
20200216124515 15 188 0.0 0.0 0.05 0.08 0.05 90 1027.5
20200216123056 15 186 0.0 0.0 0.05 0.05 0.05 90 1027.7
20200216121520 15 170 0.0 0.0 0.03 0.05 0.03 89 1027.7
20200216114506 15 165 0.0 0.0 0.00 0.03 0.00 89 1027.8
20200216113007 15 184 0.0 0.0 0.00 0.03 0.00 88 1028.0
20200216111542 15 179 0.0 0.0 0.00 0.03 0.00 87 1028.0
20200216104510 14 157 0.0 0.0 0.00 0.03 0.00 88 1027.9
20200216101620 14 163 0.0 0.0 0.00 0.03 0.00 87 1027.7
20200216094753 13 153 0.0 0.0 0.00 0.03 0.00 87 1027.7
20200216093125 13 159 0.0 0.0 0.00 0.03 0.00 88 1027.5
20200216084628 13 145 0.0 0.0 0.00 0.03 0.00 89 1027.2
20200216083156 13 178 0.0 0.0 0.00 0.03 0.00 89 1026.8
20200216081604 13 138 0.0 0.0 0.00 0.03 0.00 90 1026.7
20200216074631 12 161 0.0 0.0 0.00 0.03 0.00 90 1026.6
20200216073126 12 139 0.0 0.0 0.00 0.03 0.00 90 1026.4
20200216071617 12 159 0.0 0.0 0.00 0.03 0.00 90 1026.4
20200216064640 12 144 0.0 0.0 0.00 0.03 0.00 90 1026.2
20200216063113 12 162 0.0 0.0 0.00 0.03 0.00 90 1026.2
20200216061627 12 135 0.0 0.0 0.00 0.03 0.00 90 1026.0
20200216053113 12 130 0.0 0.0 0.00 0.03 0.00 90 1026.2
20200216051610 12 150 0.0 0.0 0.00 0.03 0.00 90 1026.6
20200216044624 12 130 0.0 0.0 0.00 0.03 0.00 90 1026.7
20200216043107 11 138 0.0 0.0 0.00 0.03 0.00 90 1026.8
20200216041648 11 146 0.0 0.0 0.00 0.03 0.00 90 1026.8
20200216034635 11 147 0.0 0.0 0.00 0.03 0.00 90 1026.8
20200216033048 11 146 0.0 0.0 0.00 0.03 0.00 90 1026.8
20200216031630 11 145 0.0 0.0 0.00 0.05 0.00 90 1026.9
20200216024630 11 143 0.0 0.0 0.00 0.05 0.00 90 1027.0
20200216023152 11 139 0.0 0.0 0.00 0.05 0.00 91 1027.1
20200216021557 11 130 0.0 0.0 0.00 0.05 0.00 91 1027.1
20200216014538 11 139 0.0 0.0 0.00 0.05 0.00 90 1027.3
20200216013054 11 148 0.0 0.0 0.00 0.05 0.00 90 1027.2
20200216011613 11 148 0.0 0.0 0.00 0.05 0.00 90 1027.4
20200216004614 11 136 0.0 0.0 0.00 0.05 0.00 90 1027.1
20200216003112 11 136 0.0 0.0 0.00 0.05 0.00 90 1027.2
20200216001631 11 144 0.0 0.0 0.00 0.05 0.00 90 1027.4
20200215234538 12 136 0.0 0.0 0.00 0.05 0.00 90 1027.3
20200215233054 12 140 0.0 0.0 0.00 0.05 0.00 90 1027.2
20200215231538 12 136 0.0 0.0 0.00 0.05 0.00 90 1027.0
20200215224531 12 158 0.0 0.0 0.00 0.05 0.00 90 1027.5
20200215223035 12 157 0.0 0.0 0.00 0.05 0.00 89 1027.6
20200215221526 12 157 0.0 0.0 0.00 0.05 0.00 89 1027.6
20200215214525 12 157 0.0 0.0 0.00 0.05 0.00 88 1027.3